Regional Weather Roundup
Issued by NWS Wakefield, VA

Home | Current Version | Previous Version | Text Only | Print | Product List | Glossary On
Versions: 1 2 3 4 5 6 7 8 9 10 11 12 13 14 15 16 17 18 19 20 21 22 23 24 25 26 27 28 29 30 31 32 33 34 35 36 37 38 39 40 41 42 43 44 45 46 47 48 49 50
000
ASUS41 KAKQ 261910
RWRAKQ

REGIONAL WEATHER ROUNDUP
NATIONAL WEATHER SERVICE WAKEFIELD VA
200 PM EST MON JAN 26 2015

Note: "fair" indicates few or no clouds below 12,000 feet with no
significant weather and/or obstructions to visibility. * = Denotes
station may not report precipitation (e.g., rain,snow,etc.),
thunder or fog.

VAZ042-051-052>054-056-262000-
NORTHERN VIRGINIA

CITY           SKY/WX    TMP DP  RH WIND       PRES   REMARKS
WASH NATIONAL  CLOUDY    34  28  79 NE15      29.73F WCI  24
DULLES         LGT SNOW  32  28  86 NE13      29.72S FOG     WCI  22
FORT BELVOIR   CLOUDY    33  30  90 VRB3      29.73S
QUANTICO       CLOUDY    35  31  85 NE12      29.73R
FREDERICKSBRG* CLOUDY    36  36 100 N12G17    29.69S
STAFFORD*      CLOUDY    34  32  91 N7        29.74S
WARRENTON      CLOUDY    35  35 100 N9        29.71S
CULPEPER*      DRIZZLE   36  34  93 NE8       29.72R
MANASSAS*      CLOUDY    34  32  93 NE12      29.72F
LEESBURG*      CLOUDY    32  32 100 N9        29.74S FOG
WINCHESTER     CLOUDY    32  28  86 N6        29.72S HAZE
FRONT ROYAL*   CLOUDY    32  32 100 NE6       29.70S
LURAY*         CLOUDY    36  36 100 NE12      29.67S
$$

VAZ048-049-060>072-079>083-262000-
CENTRAL AND SOUTH CENTRAL VIRGINIA

CITY           SKY/WX    TMP DP  RH WIND       PRES   REMARKS
RICHMOND       PTSUNNY   48  40  73 N13       29.62F
CHESTERFIELD*  CLOUDY    46  32  57 N12       29.63F
PETERSBURG*    PTSUNNY   52  39  61 N8        29.61F
HANOVER        CLOUDY    40  37  89 N7        29.66S
TAPPAHANNOCK*  CLOUDY    40  34  77 N10       29.66S
QUINTON*       MOCLDY    47  39  73 NE10G17   29.61F
CHARLOTTSVILLE CLOUDY    36  34  92 NE12      29.67S
GORDONSVILLE*  CLOUDY    35  34  95 NE10      29.68R
ORANGE*        CLOUDY    36  36 100 N9        29.70S
LOUISA*        CLOUDY    37  36  93 N12       29.66R
BUMPASS*       CLOUDY    37  36  96 N5        29.67S
FARMVILLE*     CLOUDY    43  43 100 N9        29.63F
CREWE*         CLOUDY    44  41  89 NW8       29.61F
FORT PICKETT*  CLOUDY    47  43  87 NW10      29.60F
CHASE CITY*    CLOUDY    45  45 100 NW3       29.61F
CLARKSVILLE*   CLOUDY    43  41  93 NW6       29.61F
SOUTH HILL*    CLOUDY    47  41  78 NW5       29.64F
LAWRENCEVILLE* MOCLDY    51  40  64 N8        29.58F
EMPORIA*       MOSUNNY   52  37  58 NW7       29.59S
$$

VAZ088>098-262000-
SOUTHEAST VIRGINIA

CITY           SKY/WX    TMP DP  RH WIND       PRES   REMARKS
NORFOLK        CLOUDY    43  38  82 N12       29.55F
VIRGINIA BEACH CLOUDY    47  41  80 NW10      29.54F
NORFOLK NAVAL  CLOUDY    48  39  71 N12       29.57F
WEST POINT*    CLOUDY    51  38  61 N10       29.62F
SALUDA*        CLOUDY    44  39  81 N7        29.62F
NEWPORT NEWS   PTSUNNY   51  41  68 N13       29.57F
LANGLEY AFB    PTSUNNY   46  40  80 N13       29.56F
FORT EUSTIS    MOSUNNY   52  44  73 NE6       29.56F
WILLIAMSBURG*    N/A     55  45  67 NE6       29.59F
HR EXEC AP*    FAIR      48  39  71 N7        29.59F
FRANKLIN*      PTSUNNY   52  40  61 N7        29.57F
WAKEFIELD      MOSUNNY   53  36  52 NE7       29.57F
$$

VAZ020-022-025-037-045-262000-
WEST CENTRAL AND SOUTHWEST VIRGINIA

CITY           SKY/WX    TMP DP  RH WIND       PRES   REMARKS
STAUNTON*      FLURRIES  34  32  92 NE5       29.67S
WAYNESBORO*    CLOUDY    33  33  99 N5        29.64S
HOT SPRINGS VA SNOW      33  33 100 CALM      29.53F VSB<1/4
LYNCHBURG      CLOUDY    38  37  97 N9        29.64F FOG
DANVILLE       CLOUDY    48  37  65 NE9       29.62F
SOUTH BOSTON*  CLOUDY    43  40  91 CALM      29.62F
MARTINSVILLE   CLOUDY    46  38  74 CALM      29.63F
ROANOKE        PTSUNNY   46  36  68 NE7       29.63F
BLACKSBURG     CLOUDY    41  34  75 W8        29.63S
DUBLIN*        CLOUDY    44  37  77 W8        29.61F
MARION*        CLOUDY    37  32  82 W17       29.65S
HILLSVILLE*    CLOUDY    39  35  85 NW16G23   29.59F
RICHLANDS*     CLOUDY    29  25  85 NW12G17   29.68R WCI  20
WISE*          FLURRIES  28  27  93 NW12G21   29.72S WCI  18
ABINGDON*      CLOUDY    35  30  83 NW16G23   29.70R WCI  25
$$

MDZ021>025-VAZ099-100-262000-
SOUTHERN MARYLAND AND THE DELMARVA PENINSULA

CITY           SKY/WX    TMP DP  RH WIND       PRES   REMARKS
PATUXENT RIVER CLOUDY    38  34  85 N10       29.66F
BAY BRIDGE APT   N/A     32  32 100 N6        29.72S
LEONARDTOWN    CLOUDY    36  32  87 NE6       29.68S
DOVER          LGT SNOW  34  34 100 N12       29.71S FOG
GEORGETOWN     LGT RAIN  39  36  89 N14G23    29.66F FOG
EASTON         CLOUDY    37  37 100 NE14G29   29.72F
CAMBRIDGE      CLOUDY    41  36  81 NE12G17   29.65F
SALISBURY      CLOUDY    47  41  80 N16       29.62F
OCEAN CITY     HVY RAIN  43  41  93 N14G22    29.61F FOG
WALLOPS ISLAND CLOUDY    49  45  86 NE9       29.59F
ACCOMACK*      CLOUDY    46  43  87 N5        29.58F
$$

NCZ012>017-030>032-262000-
NORTH CENTRAL AND EASTERN NORTH CAROLINA

CITY           SKY/WX    TMP DP  RH WIND       PRES   REMARKS
ROANOKE RAPIDS MOCLDY    52  43  71 NW3       29.57F
RALEIGH        CLOUDY    48  42  80 CALM      29.59F
ELIZABETH CITY CLOUDY    52  44  74 N6        29.55F
AHOSKIE*       PTSUNNY   51  40  65 N7        29.56F
EDENTON*       CLOUDY    51  45  80 N5        29.55S
CURRITUCK*     CLOUDY    51  43  73 N6        29.55F
KILL DEVIL HLS CLOUDY    49  47  90 NW3       29.52S
MANTEO         CLOUDY    48  45  87 N7        29.52F
CAPE HATTERAS  CLOUDY    51  43  74 CALM      29.50F
TARBORO*       CLOUDY    56  42  58 NE5       29.56F
GOLDSBORO      LGT RAIN  52  49  91 NW2       29.55F
WASHINGTON     PTSUNNY   49  42  77 CALM      29.54F
GREENVILLE     MOSUNNY   54  41  62 NE6       29.58F
NEW BERN         N/A     53  40  61 CALM      29.55F
WILMINGTON     MOSUNNY   56  43  61 W10G22    29.55F
$$

VAZ048-262000-
ELSEWHERE

CITY           SKY/WX    TMP DP  RH WIND       PRES   REMARKS
HARRISBURG PA  FLURRIES  23  18  81 NE10      29.80F WCI  12
BALTIMORE      LGT SNOW  31  28  89 NE13      29.73F FOG     WCI  21
ANNAPOLIS      CLOUDY    32  28  85 N10       29.72F WCI  24
ANDREWS AFB    NOT AVBL
PHILADELPHIA   LGT SNOW  29  24  82 NE24G31   29.78F WCI  15
HENDERSON NC   CLOUDY    45  40  82 N6        29.60F
GREENSBORO     LGT RAIN  44  36  73 N6        29.60F
ROCKY MOUNT    MOSUNNY   53  41  63 N7        29.56F
$$

VAZ100-262000-
MARINE

STATION/POSITION TIME  TEMP    WIND        PRES    WAVE   SWELL
                       AIR SEA DIR/SP/G            HT/PER HT/PER
                 (UTC) (F)     (DEG/KT/KT) (MB)    (FT/S) (FT/S)
BRANDYWINE LGT   1900   38 38   60/ 28/ 34 1004.3R
CAPE MAY NJ      1900   39 39   40/ 15/ 23 1004.0R
LEWES DE         1900   40 38   50/ 26/ 30 1003.4F
15NM E FENWICK I 1900   46 43              1001.2F   7/ 7
OCEAN-CITY-INLET 1900   43 40  310/ 12/ 17 1001.9F
WACHAPREAGUE VA  1900   49 42   20/  5/  8 1001.5F
THOMAS POINT MD  1900   33 37   30/ 19/ 21 1006.9F
GOOSES REEF MD   1900   36 37  VRB 16/ 19  1004.2R   2/ 3
COVE POINT MD    1900   36      10/ 13/ 15 1004.7S
SOLOMONS ISLAND  1900      39                N/A
BISHOPS HEAD MD  1900   40 40   20/ 10/ 13 1002.6F
PINEY POINT MD   1900           40/ 12/ 15   N/A
POTOMAC MD       1900   39 39   30/ 17/ 21 1002.4F   1
CAMBRIDGE MD     1900   38 36   50/ 13/ 21 1004.2S
LEWISETTA VA     1900   39 40   20/  7/ 11 1003.6F
RAPPAHANNOCK LGT 1900          350/ 12/ 13 1002.1F
STINGRAY PT      1900   41 40   10/ 16/ 19 1002.6F   2/ 3
YORK RVR RNG VA  1900   42     360/ 15/ 16 1000.8F
YORKTOWN VA      1900   45 41   20/ 14/ 16 1001.4F
JAMESTOWN VA     1900   49 42   50/  6/  8   N/A     0
DOMINION TERM VA 1900   47      20/ 12/ 16 1001.2F
KIPTOPEKE VA     1900      46  330/ 14/ 15   N/A
CHES BAY BRIDGE  1900   41 42  340/ 15/ 18 1000.4F
CAPE HENRY VA    1900   42     340/ 13/ 14  999.4F
CHESAPEAKE LGHT  1800   45     360/ 15/ 16 1001.9F
WILLOUBY STN VA  1900   44     360/ 15/ 17 1001.4F
S CRANEY ISL VA  1900           10/ 11/ 14 1000.8F
CAPE HENRY BUOY  1900      44                N/A     2/10
1ST LANDING BUOY 1900   42 42  340/ 16/ 19 1000.3F   2/ 3
CAPE CHARLES BUO 1900      44                N/A     2/11   2/11
OFFSHORE WE BUOY 1900      47                N/A     2/ 9   2/ 9
64NM E OF VA BCH 1900   55 52   80/ 12/ 14  998.0F   3/ 8   2/ 8
DUCK PIER NC     1900   44 44  350/ 12/ 13  999.0R
44100 DUCK FRF   1900      45                N/A     2/ 9
44056 DUCK FRF   1900      44                N/A     2/ 9
OREGON INLET NC  1900   49 47  300/  5/  7  999.7S
HATTERAS NC      1900   51 53   10/  3/  4  999.0F



USA.gov is the U.S. government's official web portal to all federal, state and local government web resources and services.